Time,TemperatureF,DewpointF,PressureIn,WindDirection,WindDirectionDegrees,WindSpeedMPH,WindSpeedGustMPH,Humidity,HourlyPrecipIn,Conditions,Clouds,dailyrainin,SoftwareType,DateUTC
2013-02-22 00:06:00,26.3,22.0,30.26,WSW,252,0.0,-999.0,85,-99.99,,,0.00,weatherlink.com 1.10,2013-02-22 07:06:00,
2013-02-22 00:21:00,26.0,22.0,30.26,WSW,252,0.0,-999.0,85,-99.99,,,0.00,weatherlink.com 1.10,2013-02-22 07:21:00,
2013-02-22 00:36:00,25.7,22.0,30.26,WSW,252,0.0,-999.0,86,-99.99,,,0.00,weatherlink.com 1.10,2013-02-22 07:36:00,
2013-02-22 00:51:00,25.2,22.0,30.26,WSW,252,0.0,-999.0,86,-99.99,,,0.00,weatherlink.com 1.10,2013-02-22 07:51:00,
2013-02-22 01:06:00,25.0,21.0,30.26,WSW,252,0.0,-999.0,86,-99.99,,,0.00,weatherlink.com 1.10,2013-02-22 08:06:00,
2013-02-22 01:21:00,24.9,22.0,30.26,WSW,252,0.0,-999.0,87,-99.99,,,0.00,weatherlink.com 1.10,2013-02-22 08:21:00,
2013-02-22 01:36:00,24.9,22.0,30.26,WSW,252,0.0,-999.0,87,-99.99,,,0.00,weatherlink.com 1.10,2013-02-22 08:36:00,
2013-02-22 01:51:00,24.5,21.0,30.26,WSW,252,0.0,-999.0,87,-99.99,,,0.00,weatherlink.com 1.10,2013-02-22 08:51:00,
2013-02-22 02:06:00,24.8,22.0,30.26,WSW,252,0.0,-999.0,88,-99.99,,,0.00,weatherlink.com 1.10,2013-02-22 09:06:00,
2013-02-22 02:22:00,24.9,22.0,30.26,WSW,252,0.0,-999.0,88,-99.99,,,0.00,weatherlink.com 1.10,2013-02-22 09:22:00,
2013-02-22 02:36:00,24.8,22.0,30.26,WSW,252,0.0,-999.0,88,-99.99,,,0.00,weatherlink.com 1.10,2013-02-22 09:36:00,
2013-02-22 02:51:00,25.3,22.0,30.26,WSW,252,0.0,-999.0,88,-99.99,,,0.00,weatherlink.com 1.10,2013-02-22 09:51:00,
2013-02-22 03:06:00,25.4,22.0,30.25,WSW,252,0.0,-999.0,88,-99.99,,,0.00,weatherlink.com 1.10,2013-02-22 10:06:00,
2013-02-22 03:21:00,25.4,22.0,30.25,WSW,252,0.0,-999.0,88,-99.99,,,0.00,weatherlink.com 1.10,2013-02-22 10:21:00,
2013-02-22 03:36:00,25.5,22.0,30.25,WSW,252,0.0,-999.0,87,-99.99,,,0.00,weatherlink.com 1.10,2013-02-22 10:36:00,
2013-02-22 03:52:00,25.2,22.0,30.25,WSW,252,0.0,-999.0,86,-99.99,,,0.00,weatherlink.com 1.10,2013-02-22 10:52:00,
2013-02-22 04:06:00,26.1,23.0,30.26,West,266,2.0,-999.0,88,-99.99,,,0.00,weatherlink.com 1.10,2013-02-22 11:06:00,
2013-02-22 04:21:00,27.7,24.0,30.26,West,269,0.0,-999.0,87,-99.99,,,0.00,weatherlink.com 1.10,2013-02-22 11:21:00,
2013-02-22 04:36:00,28.1,25.0,30.26,West,269,1.0,-999.0,88,-99.99,,,0.00,weatherlink.com 1.10,2013-02-22 11:36:00,
2013-02-22 04:51:00,28.1,25.0,30.26,West,269,0.0,-999.0,87,-99.99,,,0.00,weatherlink.com 1.10,2013-02-22 11:51:00,
2013-02-22 05:06:00,27.5,24.0,30.27,West,269,0.0,-999.0,86,-99.99,,,0.00,weatherlink.com 1.10,2013-02-22 12:06:00,
2013-02-22 05:21:00,26.7,23.0,30.27,West,269,0.0,-999.0,86,-99.99,,,0.00,weatherlink.com 1.10,2013-02-22 12:21:00,
2013-02-22 05:36:00,26.0,23.0,30.28,West,269,0.0,-999.0,87,-99.99,,,0.00,weatherlink.com 1.10,2013-02-22 12:36:00,
2013-02-22 05:51:00,25.8,23.0,30.28,West,269,0.0,-999.0,87,-99.99,,,0.00,weatherlink.com 1.10,2013-02-22 12:51:00,
2013-02-22 06:06:00,25.7,23.0,30.29,West,269,0.0,-999.0,88,-99.99,,,0.00,weatherlink.com 1.10,2013-02-22 13:06:00,
2013-02-22 06:22:00,25.2,22.0,30.29,West,269,0.0,-999.0,87,-99.99,,,0.00,weatherlink.com 1.10,2013-02-22 13:22:00,
2013-02-22 06:37:00,24.8,22.0,30.29,West,269,0.0,-999.0,87,-99.99,,,0.00,weatherlink.com 1.10,2013-02-22 13:37:00,
2013-02-22 06:52:00,24.6,22.0,30.29,West,269,0.0,-999.0,88,-99.99,,,0.00,weatherlink.com 1.10,2013-02-22 13:52:00,
2013-02-22 07:07:00,24.4,21.0,30.30,West,269,0.0,-999.0,88,-99.99,,,0.00,weatherlink.com 1.10,2013-02-22 14:07:00,
2013-02-22 07:22:00,24.6,22.0,30.32,West,269,0.0,-999.0,89,-99.99,,,0.00,weatherlink.com 1.10,2013-02-22 14:22:00,
2013-02-22 07:37:00,25.5,23.0,30.32,West,269,0.0,-999.0,89,-99.99,,,0.00,weatherlink.com 1.10,2013-02-22 14:37:00,
2013-02-22 07:52:00,27.2,24.0,30.34,SSW,210,0.0,-999.0,89,-99.99,,,0.00,weatherlink.com 1.10,2013-02-22 14:52:00,
2013-02-22 08:07:00,29.2,26.0,30.34,SSW,210,0.0,-999.0,87,-99.99,,,0.00,weatherlink.com 1.10,2013-02-22 15:07:00,
2013-02-22 08:21:00,32.1,27.0,30.35,SW,236,3.0,-999.0,80,-99.99,,,0.00,weatherlink.com 1.10,2013-02-22 15:21:00,
2013-02-22 08:36:00,34.4,27.0,30.36,NW,309,0.0,-999.0,75,-99.99,,,0.00,weatherlink.com 1.10,2013-02-22 15:36:00,
2013-02-22 08:51:00,35.8,27.0,30.36,WNW,300,0.0,-999.0,70,-99.99,,,0.00,weatherlink.com 1.10,2013-02-22 15:51:00,
2013-02-22 09:06:00,37.3,27.0,30.36,WNW,300,0.0,-999.0,66,-99.99,,,0.00,weatherlink.com 1.10,2013-02-22 16:06:00,
2013-02-22 09:24:00,38.9,27.0,30.37,NNE,21,0.0,-999.0,62,-99.99,,,0.00,weatherlink.com 1.10,2013-02-22 16:24:00,
2013-02-22 09:36:00,39.3,26.0,30.36,NNW,340,0.0,-999.0,59,-99.99,,,0.00,weatherlink.com 1.10,2013-02-22 16:36:00,
2013-02-22 09:52:00,39.8,25.0,30.36,NNW,342,0.0,-999.0,56,-99.99,,,0.00,weatherlink.com 1.10,2013-02-22 16:52:00,
2013-02-22 10:07:00,41.5,26.0,30.36,West,264,1.0,-999.0,55,-99.99,,,0.00,weatherlink.com 1.10,2013-02-22 17:07:00,
2013-02-22 10:21:00,42.4,27.0,30.35,East,82,0.0,-999.0,55,-99.99,,,0.00,weatherlink.com 1.10,2013-02-22 17:21:00,
2013-02-22 10:36:00,41.9,26.0,30.35,NW,308,1.0,-999.0,53,-99.99,,,0.00,weatherlink.com 1.10,2013-02-22 17:36:00,
2013-02-22 10:52:00,40.5,27.0,30.35,SE,128,6.0,-999.0,60,-99.99,,,0.00,weatherlink.com 1.10,2013-02-22 17:52:00,
2013-02-22 11:06:00,38.9,28.0,30.35,SE,128,4.0,-999.0,64,-99.99,,,0.00,weatherlink.com 1.10,2013-02-22 18:06:00,
2013-02-22 11:22:00,39.9,28.0,30.35,SE,135,0.0,-999.0,63,-99.99,,,0.00,weatherlink.com 1.10,2013-02-22 18:22:00,
2013-02-22 11:37:00,40.4,27.0,30.36,SSW,203,0.0,-999.0,59,-99.99,,,0.00,weatherlink.com 1.10,2013-02-22 18:37:00,
2013-02-22 11:52:00,40.6,27.0,30.35,West,271,1.0,-999.0,58,-99.99,,,0.00,weatherlink.com 1.10,2013-02-22 18:52:00,
2013-02-22 12:07:00,40.3,26.0,30.34,West,260,0.0,-999.0,57,-99.99,,,0.00,weatherlink.com 1.10,2013-02-22 19:07:00,
2013-02-22 12:22:00,41.1,26.0,30.34,WNW,294,1.0,-999.0,55,-99.99,,,0.00,weatherlink.com 1.10,2013-02-22 19:22:00,
2013-02-22 12:37:00,41.1,25.0,30.33,West,272,4.0,-999.0,53,-99.99,,,0.00,weatherlink.com 1.10,2013-02-22 19:37:00,
2013-02-22 12:52:00,41.8,25.0,30.32,West,277,1.0,-999.0,52,-99.99,,,0.00,weatherlink.com 1.10,2013-02-22 19:52:00,
2013-02-22 13:06:00,43.7,26.0,30.32,West,267,0.0,-999.0,50,-99.99,,,0.00,weatherlink.com 1.10,2013-02-22 20:06:00,
2013-02-22 13:21:00,44.2,25.0,30.30,WNW,293,1.0,-999.0,48,-99.99,,,0.00,weatherlink.com 1.10,2013-02-22 20:21:00,
2013-02-22 13:36:00,44.8,26.0,30.30,WSW,246,0.0,-999.0,48,-99.99,,,0.00,weatherlink.com 1.10,2013-02-22 20:36:00,
2013-02-22 13:52:00,45.2,27.0,30.29,West,263,0.0,-999.0,49,-99.99,,,0.00,weatherlink.com 1.10,2013-02-22 20:52:00,
2013-02-22 14:07:00,45.7,26.0,30.29,SSW,206,0.0,-999.0,47,-99.99,,,0.00,weatherlink.com 1.10,2013-02-22 21:07:00,
2013-02-22 14:22:00,46.0,27.0,30.29,WSW,252,0.0,-999.0,47,-99.99,,,0.00,weatherlink.com 1.10,2013-02-22 21:22:00,
2013-02-22 14:37:00,46.2,28.0,30.29,WNW,296,0.0,-999.0,49,-99.99,,,0.00,weatherlink.com 1.10,2013-02-22 21:37:00,
2013-02-22 14:53:00,46.0,27.0,30.30,West,262,2.0,-999.0,47,-99.99,,,0.00,weatherlink.com 1.10,2013-02-22 21:53:00,
2013-02-22 15:07:00,45.4,27.0,30.29,West,278,0.0,-999.0,48,-99.99,,,0.00,weatherlink.com 1.10,2013-02-22 22:07:00,
2013-02-22 15:22:00,45.8,26.0,30.28,NW,318,5.0,-999.0,47,-99.99,,,0.00,weatherlink.com 1.10,2013-02-22 22:22:00,
2013-02-22 15:37:00,45.9,27.0,30.27,West,259,7.0,-999.0,47,-99.99,,,0.00,weatherlink.com 1.10,2013-02-22 22:37:00,
2013-02-22 15:53:00,45.8,26.0,30.29,WNW,298,1.0,-999.0,47,-99.99,,,0.00,weatherlink.com 1.10,2013-02-22 22:53:00,
2013-02-22 16:07:00,45.5,26.0,30.29,WNW,302,2.0,-999.0,47,-99.99,,,0.00,weatherlink.com 1.10,2013-02-22 23:07:00,
2013-02-22 16:22:00,45.7,26.0,30.28,WNW,294,4.0,-999.0,46,-99.99,,,0.00,weatherlink.com 1.10,2013-02-22 23:22:00,
2013-02-22 16:37:00,45.4,26.0,30.28,West,275,4.0,-999.0,46,-99.99,,,0.00,weatherlink.com 1.10,2013-02-22 23:37:00,
2013-02-22 16:52:00,45.0,24.0,30.28,WNW,292,1.0,-999.0,44,-99.99,,,0.00,weatherlink.com 1.10,2013-02-22 23:52:00,
2013-02-22 17:06:00,43.4,28.0,30.29,West,265,1.0,-999.0,54,-99.99,,,0.00,weatherlink.com 1.10,2013-02-23 00:06:00,
2013-02-22 17:22:00,41.8,28.0,30.29,WNW,284,4.0,-999.0,59,-99.99,,,0.00,weatherlink.com 1.10,2013-02-23 00:22:00,
2013-02-22 17:37:00,40.8,28.0,30.29,WNW,294,5.0,-999.0,61,-99.99,,,0.00,weatherlink.com 1.10,2013-02-23 00:37:00,
2013-02-22 17:52:00,40.5,28.0,30.29,West,275,1.0,-999.0,62,-99.99,,,0.00,weatherlink.com 1.10,2013-02-23 00:52:00,
2013-02-22 18:08:00,39.7,28.0,30.30,West,277,4.0,-999.0,63,-99.99,,,0.00,weatherlink.com 1.10,2013-02-23 01:08:00,
2013-02-22 18:22:00,39.1,28.0,30.31,WNW,296,0.0,-999.0,64,-99.99,,,0.00,weatherlink.com 1.10,2013-02-23 01:22:00,
2013-02-22 18:37:00,38.3,28.0,30.32,WNW,284,0.0,-999.0,66,-99.99,,,0.00,weatherlink.com 1.10,2013-02-23 01:37:00,
2013-02-22 18:52:00,38.0,28.0,30.32,WNW,284,0.0,-999.0,67,-99.99,,,0.00,weatherlink.com 1.10,2013-02-23 01:52:00,
2013-02-22 19:07:00,36.1,27.0,30.32,WNW,284,0.0,-999.0,70,-99.99,,,0.00,weatherlink.com 1.10,2013-02-23 02:07:00,
2013-02-22 19:22:00,35.3,27.0,30.34,WNW,284,0.0,-999.0,71,-99.99,,,0.00,weatherlink.com 1.10,2013-02-23 02:22:00,
2013-02-22 19:37:00,34.7,27.0,30.34,WNW,284,0.0,-999.0,73,-99.99,,,0.00,weatherlink.com 1.10,2013-02-23 02:37:00,
2013-02-22 19:52:00,34.1,27.0,30.35,WNW,284,0.0,-999.0,74,-99.99,,,0.00,weatherlink.com 1.10,2013-02-23 02:52:00,
2013-02-22 20:09:00,34.0,27.0,30.35,WNW,284,0.0,-999.0,74,-99.99,,,0.00,weatherlink.com 1.10,2013-02-23 03:09:00,
2013-02-22 20:22:00,33.7,27.0,30.36,WNW,284,0.0,-999.0,75,-99.99,,,0.00,weatherlink.com 1.10,2013-02-23 03:22:00,
2013-02-22 20:37:00,33.3,26.0,30.36,WNW,284,0.0,-999.0,75,-99.99,,,0.00,weatherlink.com 1.10,2013-02-23 03:37:00,
2013-02-22 20:52:00,33.0,26.0,30.36,WNW,284,0.0,-999.0,76,-99.99,,,0.00,weatherlink.com 1.10,2013-02-23 03:52:00,
2013-02-22 21:07:00,32.6,26.0,30.36,WNW,284,0.0,-999.0,76,-99.99,,,0.00,weatherlink.com 1.10,2013-02-23 04:07:00,
2013-02-22 21:22:00,32.5,26.0,30.36,WNW,284,0.0,-999.0,76,-99.99,,,0.00,weatherlink.com 1.10,2013-02-23 04:22:00,
2013-02-22 21:37:00,32.6,26.0,30.36,WNW,284,0.0,-999.0,76,-99.99,,,0.00,weatherlink.com 1.10,2013-02-23 04:37:00,
2013-02-22 21:52:00,32.0,25.0,30.36,WNW,284,0.0,-999.0,76,-99.99,,,0.00,weatherlink.com 1.10,2013-02-23 04:52:00,
2013-02-22 22:09:00,31.4,25.0,30.37,WNW,284,0.0,-999.0,78,-99.99,,,0.00,weatherlink.com 1.10,2013-02-23 05:09:00,
2013-02-22 22:22:00,31.5,26.0,30.38,WNW,284,0.0,-999.0,79,-99.99,,,0.00,weatherlink.com 1.10,2013-02-23 05:22:00,
2013-02-22 22:37:00,32.2,26.0,30.38,West,281,0.0,-999.0,77,-99.99,,,0.00,weatherlink.com 1.10,2013-02-23 05:37:00,
2013-02-22 22:52:00,32.2,25.0,30.38,West,281,0.0,-999.0,76,-99.99,,,0.00,weatherlink.com 1.10,2013-02-23 05:52:00,
2013-02-22 23:09:00,32.2,26.0,30.38,West,281,0.0,-999.0,77,-99.99,,,0.00,weatherlink.com 1.10,2013-02-23 06:09:00,
2013-02-22 23:22:00,31.5,25.0,30.37,West,281,0.0,-999.0,77,-99.99,,,0.00,weatherlink.com 1.10,2013-02-23 06:22:00,
2013-02-22 23:37:00,31.3,25.0,30.37,West,276,2.0,-999.0,78,-99.99,,,0.00,weatherlink.com 1.10,2013-02-23 06:37:00,
2013-02-22 23:52:00,31.8,25.0,30.37,WNW,291,4.0,-999.0,77,-99.99,,,0.00,weatherlink.com 1.10,2013-02-23 06:52:00,